This is the latest recevied weather packets stored in our database for station/object DH1FR-13. If no packets are shown the sender has not sent any weather packets the latest 10 day(s).
| Time | Temp. | Humidity | Pressure | Rain* | Wind** | Luminosity | Snow |
|---|---|---|---|---|---|---|---|
| 1777635601 | 20° C | 38% | 1030.4 hPa | 0 mm | 0 m/s | - | - |
| 1777635001 | 19.44° C | 37% | 1030.3 hPa | 0 mm | 0 m/s | - | - |
| 1777634401 | 18.89° C | 39% | 1030.5 hPa | 0 mm | 0.45 m/s, 99° | - | - |
| 1777633800 | 18.89° C | 39% | 1030.8 hPa | 0 mm | 0 m/s | - | - |
| 1777633201 | 18.89° C | 39% | 1030.7 hPa | 0 mm | 0 m/s | - | - |
| 1777632601 | 18.89° C | 39% | 1030.9 hPa | 0 mm | 0 m/s | - | - |
| 1777632001 | 18.33° C | 40% | 1030.9 hPa | 0 mm | 0 m/s | - | - |
| 1777631401 | 18.89° C | 39% | 1031.3 hPa | 0 mm | 0 m/s | - | - |
| 1777630801 | 18.89° C | 41% | 1031.3 hPa | 0 mm | 0 m/s | - | - |
| 1777630201 | 17.22° C | 41% | 1031.3 hPa | 0 mm | 0 m/s | - | - |
| 1777629601 | 17.22° C | 42% | 1031.4 hPa | 0 mm | 0 m/s | - | - |
| 1777629000 | 16.67° C | 43% | 1031.4 hPa | 0 mm | 0 m/s | - | - |
| 1777628401 | 16.67° C | 42% | 1031.5 hPa | 0 mm | 0 m/s | - | - |
| 1777627801 | 16.67° C | 43% | 1031.3 hPa | 0 mm | 0 m/s | - | - |
| 1777627201 | 16.11° C | 45% | 1031.4 hPa | 0 mm | 0 m/s | - | - |
| 1777626601 | 16.11° C | 45% | 1031.5 hPa | 0 mm | 0 m/s | - | - |
| 1777626001 | 15.56° C | 45% | 1031.6 hPa | 0 mm | 0 m/s | - | - |
| 1777625401 | 15.56° C | 45% | 1031.6 hPa | 0 mm | 0 m/s | - | - |
| 1777624801 | 15.56° C | 48% | 1031.6 hPa | 0 mm | 0 m/s | - | - |
| 1777624205 | 14.44° C | 51% | 1031.7 hPa | 0 mm | 0 m/s | - | - |
| 1777623601 | 15° C | 50% | 1031.8 hPa | 0 mm | 0 m/s | - | - |
| 1777623001 | 15° C | 51% | 1031.9 hPa | 0 mm | 0 m/s | - | - |
| 1777622401 | 13.89° C | 53% | 1031.9 hPa | 0 mm | 0 m/s | - | - |
| 1777621801 | 13.89° C | 55% | 1031.8 hPa | 0 mm | 0 m/s | - | - |
| 1777621201 | 12.78° C | 58% | 1032 hPa | 0 mm | 0 m/s | - | - |
* Rain latest hour (hover to see other rain measurements)
** Current wind speed in m/s (hover to see current wind gust speed)